Regional Weather Roundup
Issued by NWS Sioux Falls, SD

Home | Current Version | Previous Version | Text Only | Print | Product List | Glossary On
Versions: 1 2 3 4 5 6 7 8 9 10 11 12 13 14 15 16 17 18 19 20 21 22 23 24 25 26 27 28 29 30 31 32 33 34 35 36 37 38 39 40 41 42 43 44 45 46 47 48 49 50
000
ASUS43 KFSD 291010
RWRFSD

WEATHER ROUNDUP FOR SE SOUTH DAKOTA/SW MINNESOTA/NW IOWA
NATIONAL WEATHER SERVICE SIOUX FALLS SD
500 AM CDT FRI JUL 29 2016

NOTE: "FAIR" INDICATES FEW OR NO CLOUDS BELOW 12,000 FEET WITH NO
SIGNIFICANT WEATHER AND OR OBSTRUCTIONS TO VISIBILITY.


SDZ038>040-050-052>070-291100-
SOUTHEAST SOUTH DAKOTA

CITY           SKY/WX    TMP DP  RH WIND       PRES   REMARKS
BROOKINGS      CLEAR     56  53  90 CALM      30.08S
CHAMBERLAIN    CLOUDY    67  67 100 CALM      30.09S
HURON          CLEAR     57  55  93 CALM      30.08R
MADISON        FAIR      54  54 100 NE3       30.09R
MITCHELL       PTCLDY    59  57  93 W3        30.09R
SIOUX FALLS    PTCLDY    56  54  93 CALM      30.06F
WINNER         PTSUNNY   63  61  93 CALM      30.10S
YANKTON        PTCLDY    61  54  77 N7        30.04F
$$

MNZ071-072-080-081-089-090-097-098-291100-
SOUTHWEST MINNESOTA

CITY           SKY/WX    TMP DP  RH WIND       PRES   REMARKS
FAIRMONT       CLOUDY    61  54  77 N6        30.02F
JACKSON        CLEAR     59  55  88 CALM      30.06S
LUVERNE        CLEAR     54  52  94 CALM      30.07S
MARSHALL       CLEAR     53  51  93 W3        30.08S
MONTEVIDEO     CLEAR     55  52  88 CALM      30.10R
REDWOOD FALLS  CLEAR     57  54  89 NW7       30.07R
TRACY          CLEAR     57  55  94 NW6       30.08S
WINDOM         MOCLDY    59  57  94 N6        30.05F
WORTHINGTON    CLEAR     56  54  93 N7        30.06F
$$

IAZ001>003-012>014-020>022-031-032-NEZ013-014-SDZ071-291100-
NORTHWEST IOWA

CITY           SKY/WX    TMP DP  RH WIND       PRES   REMARKS
CHEROKEE       MOCLDY    60  60 100 N3        30.03S
DENISON        MOCLDY    61  59  94 CALM      30.00S FOG
ESTHERVILLE    CLOUDY    60  59  96 N6        30.03F
LE MARS        PTCLDY    59  57  94 N5        30.04F
SHELDON        PTCLDY    57  57 100 CALM      30.03F
SIOUX CITY     CLOUDY    65  62  90 W3        30.02F
SPENCER        MOCLDY    61  57  87 N7        30.04F
STORM LAKE     PTCLDY    61  59  94 N6        30.03S
$$

ABBREVIATIONS USED IN REMARKS
   TC - TEMPERATURE IN CELSIUS
  WCI - WIND CHILL INDEX
   HX - HEAT INDEX
  VSB - VISIBILITY




USA.gov is the U.S. government's official web portal to all federal, state and local government web resources and services.